Location: Gombori
(14.9797°N, 2.9419°W)
Time: 03:22:35
(UTC+00:00)

CZ-4 R/B - Pass Details

Date: 08 December 2021
Orbit: 531 x 594 km, 97.7° (Epoch: 27 January)

Event Time Altitude Azimuth Distance (km) Brightness Sun altitude
Rises 19:15:45 0° 165° (SSE) 2,814 5.0 -22.0°
Reaches altitude 10° 19:17:55 10° 164° (SSE) 1,910 4.1 -22.5°
Enters shadow 19:20:59 48° 153° (SSE) 765 1.9 -23.2°
